• Join FlightAware (Why Join?)
  • Login
  • US Flag 
05:32AM EDT


 

Airport Tracker/Info


-or-


 

Live Flight TrackerFlight Track Log ✈ EGF4278 ✈ 27-May-2013 ✈ KCMI - KORD

Flight Track Log - Related Links

Times and Time Zones

All times are in EDT time to prevent confusion due to time zone crossing. See the EGF4278 flight status page for this flight to view local times or setup timezone preferences in your user account.

Time Position Orientation Groundspeed Altitude Reporting Facility
EDT Latitude Longitude Course Direction KTS MPH feet Rate Location/Type
07:09AM 40.0794 -88.2231 333° Northwest 239 275 16,000  Level Chicago Center
07:10AM 40.2676 -88.4010 323° Northwest  Level FlightAware Approximate
07:10AM 40.1358 -88.2614 333° Northwest 266 306 5,900  Level Chicago Center
07:11AM 40.3458 -88.4427 330° Northwest  Level FlightAware Approximate
07:11AM 40.2039 -88.3097 332° Northwest 273 314 8,500  Level Chicago Center
07:12AM 40.4217 -88.4942 339° North  Level FlightAware Approximate
07:12AM 40.2747 -88.3550 334° Northwest 281 323 10,900  Level Chicago Center
07:13AM 40.5005 -88.5384 337° Northwest  Level FlightAware Approximate
07:13AM 40.3814 -88.3739 352° North 322 371 12,900  Level Chicago Center
07:14AM 40.5735 -88.5823 333° Northwest  Level FlightAware Approximate
07:14AM 40.4753 -88.3908 352° North 339 390 14,800  Level Chicago Center
07:15AM 40.6452 -88.6301 333° Northwest  Level FlightAware Approximate
07:15AM 40.5733 -88.4111 351° North 358 412 15,900  Level Chicago Center
07:16AM 40.6794 -88.4314 352° North 381 438 15,900  Level Chicago Center
07:17AM 40.7922 -88.4508 353° North 399 459 15,900  Level Chicago Center
07:18AM 40.9039 -88.4728 352° North 406 467 15,900  Level Chicago Center
07:19AM 41.0106 -88.4944 351° North 396 456 15,900 -300 Level Chicago Center
07:20AM 41.1225 -88.5172 351° North 402 463 15,300 -1,260 Descending Chicago Center
07:21AM 41.2311 -88.5378 352° North 398 458 13,400 -1,740 Descending Chicago Center
07:22AM 41.3333 -88.5597 351° North 379 436 11,800 -1,200 Descending Chicago Center
07:23AM 41.4300 -88.5778 352° North 357 411 11,000 -420 Descending Chicago Center
07:24AM 41.5131 -88.5069 33° Northeast 363 418 11,000  Level Chicago Center
07:25AM 41.5853 -88.4114 45° Northeast 364 419 11,000  Level Chicago Center
07:26AM 41.6572 -88.3192 44° Northeast 361 415 11,000  Level Chicago Center
07:27AM 41.7297 -88.2264 44° Northeast 358 412 11,000 -240 Level Chicago Center
07:28AM 41.7994 -88.1353 44° Northeast 350 403 10,600 -600 Descending Chicago Center
07:29AM 41.8725 -88.1092 15° North 295 339 9,800 -1,020 Descending Chicago Center
07:30AM 41.9167 -88.1167 353° North 299 344 9,100 -1,140 Descending Chicago TRACON
07:31AM 42.0000 -88.1333 352° North 297 342 8,100 -960 Descending Chicago TRACON
07:31AM 42.0236 -88.1486 334° Northwest 277 319 7,700 -1,020 Descending Chicago Center
07:32AM 42.0761 -88.2094 319° Northwest 253 291 6,600 -1,260 Descending Chicago Center
07:33AM 42.1253 -88.2700 318° Northwest 244 281 5,200 -840 Descending Chicago Center
07:34AM 42.1669 -88.3208 318° Northwest 211 243 5,000 -120 Descending Chicago Center
07:35AM 42.2208 -88.3372 347° North 219 252 5,000  Level Chicago Center
07:36AM 42.2528 -88.2803 53° Northeast 216 249 5,000  Level Chicago Center
07:37AM 42.2311 -88.2164 115° Southeast 192 221 5,000  Level Chicago Center
07:38AM 42.1975 -88.1661 132° Southeast 187 215 5,000  Level Chicago Center
07:39AM 42.1586 -88.1244 142° Southeast 180 207 5,000 -480 Level Chicago Center
07:40AM 42.1208 -88.0803 139° Southeast 180 207 4,100 -900 Descending Chicago Center